Location: Breungeshain
(50.5000°N, 9.2000°E)
Time: 20:42:51
(UTC+00:00)

ISS - Pass Details

Date: 28 May 2017
Orbit: 401 x 408 km, 51.6° (Epoch: 25 June)

Event Time Altitude Azimuth Distance (km) Brightness Sun altitude
Rises 21:09:09 0° 263° (W) 2,338 0.4 -12.3°
Reaches altitude 10° 21:11:14 10° 265° (W) 1,476 -0.6 -12.5°
Maximum altitude 21:14:33 76° 351° (N) 426 -3.7 -12.7°
Drops below altitude 10° 21:17:51 10° 79° (ENE) 1,475 -1.2 -13.0°
Sets 21:19:57 0° 80° (E) 2,335 -0.2 -13.1°
